Location: Asbacherhof
(48.8543°N, 10.7903°E)
Time: 23:45:54
(UTC+00:00)

AQUA - Pass Details

Date: 26 May 2022
Orbit: 701 x 703 km, 98.2° (Epoch: 26 June)

Event Time Altitude Azimuth Distance (km) Brightness Sun altitude
Rises 01:11:29 0° 16° (NNE) 3,103 8.8 -15.3°
Reaches altitude 10° 01:13:46 10° 19° (NNE) 2,180 7.7 -15.1°
Maximum altitude 01:18:32 68° 102° (ESE) 761 4.0 -14.7°
Enters shadow 01:21:55 19° 182° (S) 1,646 5.2 -14.4°
